Ciudad Obregón International Airport

Jump to: basic info | weather | frequencies | runways | comments

Related pages: nearby airports | nearby navaids | notams | map

Basic information (top)

Codes: CEN MMCN
Location: lon 27.392599, lat -109.833000, elev 243 ft / 74 m msl
Status: medium_airport
Scheduled airline service: yes
Links: Wikipedia Mobile

Weather (top)

Current conditions (rec'd 2014/08/29 17:43Z):

MMCN 291743Z 12002KT 10SM SKC 36/22 A2973 RMK SLP068 HZY FU NW

Airport forecast (rec'd 2014/08/29 18:10Z):

TAF MMCN 291705Z 2918/3018 26010KT P6SM SKC 
     FM300200 00000KT P6SM SCT250 
     FM301700 26010KT P6SM SCT2560

Frequencies (top)

Verify before use: may be inaccurate or out of date.

APP: 121.3 MHz (APP)
ATIS: 127.6 MHz (ATIS)
TWR: 118.3 MHz (OBREGON TWR)

Runways (top)

13/31: 7,546 x 148 ft (2,300 x 45 m) — paved — lighted

Latest comments (top)

No comments yet for Ciudad Obregón International Airport

More... (top)

See also NOTAMs and nearby airports and navaids, or visit the Ciudad Obregón International Airport page at the main OurAirports website..